TimeAST,TemperatureF,Dew PointF,Humidity,Sea Level PressureIn,VisibilityMPH,Wind Direction,Wind SpeedMPH,Gust SpeedMPH,PrecipitationIn,Events,Conditions,WindDirDegrees,DateUTC
12:55 AM,64.0,57.6,79,29.93,6.2,NNW,11.5,-,N/A,,Clear,330,2013-03-21 21:55:00
1:55 AM,63.3,57.9,83,29.91,6.2,NW,9.2,-,N/A,,Clear,320,2013-03-21 22:55:00
2:55 AM,62.6,58.1,85,29.92,6.2,NW,6.9,-,N/A,,Clear,310,2013-03-21 23:55:00
3:55 AM,62.6,56.5,80,29.92,6.2,NW,5.8,-,N/A,,Clear,320,2013-03-22 00:55:00
4:55 AM,61.7,54.9,78,29.94,6.2,NW,8.1,-,N/A,,Clear,310,2013-03-22 01:55:00
5:55 AM,61.2,54.0,77,29.95,6.2,NW,9.2,-,N/A,,Clear,320,2013-03-22 02:55:00
6:55 AM,63.9,54.1,71,29.96,6.2,NW,10.4,-,N/A,,Clear,320,2013-03-22 03:55:00
7:55 AM,69.1,53.1,57,29.97,6.2,NNW,13.8,-,N/A,,Clear,330,2013-03-22 04:55:00
8:55 AM,74.5,46.8,37,29.97,6.2,NNW,21.9,-,N/A,,Clear,340,2013-03-22 05:55:00
9:55 AM,77.9,40.5,26,29.96,6.2,NNW,23.0,28.8,N/A,,Partly Cloudy,340,2013-03-22 06:55:00
10:55 AM,79.9,36.9,21,29.94,6.2,NNW,21.9,25.3,N/A,,Partly Cloudy,340,2013-03-22 07:55:00
11:55 AM,81.3,33.6,18,29.92,6.2,NNW,21.9,27.6,N/A,,Clear,340,2013-03-22 08:55:00
12:55 PM,82.4,30.2,15,29.90,6.2,NW,24.2,28.8,N/A,,Clear,320,2013-03-22 09:55:00
1:55 PM,82.6,32.9,17,29.88,6.2,NW,24.2,-,N/A,,Clear,320,2013-03-22 10:55:00
2:55 PM,81.9,32.0,16,29.87,6.2,NW,18.4,-,N/A,,Clear,320,2013-03-22 11:55:00
3:55 PM,80.6,31.3,17,29.87,6.2,NW,19.6,-,N/A,,Clear,320,2013-03-22 12:55:00
4:55 PM,78.6,30.7,17,29.87,6.2,NNW,17.3,-,N/A,,Clear,330,2013-03-22 13:55:00
5:55 PM,75.2,35.2,23,29.87,6.2,NNW,15.0,-,N/A,,Clear,340,2013-03-22 14:55:00
6:55 PM,73.2,36.7,26,29.88,6.2,North,11.5,-,N/A,,Clear,350,2013-03-22 15:55:00
7:55 PM,70.7,39.0,32,29.88,6.2,North,12.7,-,N/A,,Clear,350,2013-03-22 16:55:00
8:55 PM,67.6,40.3,37,29.89,6.2,North,8.1,-,N/A,,Clear,350,2013-03-22 17:55:00
9:55 PM,64.9,41.2,42,29.88,6.2,NNW,6.9,-,N/A,,Clear,330,2013-03-22 18:55:00
10:55 PM,61.5,40.3,46,29.88,6.2,WNW,8.1,-,N/A,,Clear,290,2013-03-22 19:55:00
11:55 PM,59.0,41.2,52,29.88,6.2,West,4.6,-,N/A,,Clear,280,2013-03-22 20:55:00